Time,TemperatureF,DewpointF,PressureIn,WindDirection,WindDirectionDegrees,WindSpeedMPH,WindSpeedGustMPH,Humidity,HourlyPrecipIn,Conditions,Clouds,dailyrainin,SoftwareType,DateUTC
2013-03-03 00:10:00,28.5,22.0,30.28,WSW,250,0.0,0.0,75,0.00,,,0.00,weatherlink.com 1.10,2013-03-03 06:10:00,
2013-03-03 00:25:00,27.6,22.0,30.28,WSW,250,0.0,0.0,78,0.00,,,0.00,weatherlink.com 1.10,2013-03-03 06:25:00,
2013-03-03 00:40:00,27.1,22.0,30.27,WSW,250,0.0,0.0,80,0.00,,,0.00,weatherlink.com 1.10,2013-03-03 06:40:00,
2013-03-03 00:55:00,26.4,22.0,30.27,WSW,250,0.0,0.0,82,0.00,,,0.00,weatherlink.com 1.10,2013-03-03 06:55:00,
2013-03-03 01:10:00,25.7,22.0,30.27,WSW,250,0.0,0.0,84,0.00,,,0.00,weatherlink.com 1.10,2013-03-03 07:10:00,
2013-03-03 01:25:00,25.9,22.0,30.27,WSW,250,0.0,0.0,85,0.00,,,0.00,weatherlink.com 1.10,2013-03-03 07:25:00,
2013-03-03 01:40:00,25.6,22.0,30.26,WSW,250,0.0,0.0,85,0.00,,,0.00,weatherlink.com 1.10,2013-03-03 07:40:00,
2013-03-03 01:55:00,25.4,22.0,30.26,WSW,250,0.0,0.0,86,0.00,,,0.00,weatherlink.com 1.10,2013-03-03 07:55:00,
2013-03-03 02:10:00,25.2,22.0,30.26,WSW,250,0.0,0.0,87,0.00,,,0.00,weatherlink.com 1.10,2013-03-03 08:10:00,
2013-03-03 02:25:00,25.0,22.0,30.26,WSW,250,0.0,0.0,87,0.00,,,0.00,weatherlink.com 1.10,2013-03-03 08:25:00,
2013-03-03 02:40:00,24.9,22.0,30.26,WSW,250,0.0,1.0,87,0.00,,,0.00,weatherlink.com 1.10,2013-03-03 08:40:00,
2013-03-03 02:55:00,24.3,21.0,30.26,WSW,250,0.0,0.0,88,0.00,,,0.00,weatherlink.com 1.10,2013-03-03 08:55:00,
2013-03-03 03:10:00,24.2,22.0,30.26,WSW,250,0.0,0.0,89,0.00,,,0.00,weatherlink.com 1.10,2013-03-03 09:10:00,
2013-03-03 03:25:00,23.8,21.0,30.26,WSW,250,0.0,0.0,89,0.00,,,0.00,weatherlink.com 1.10,2013-03-03 09:25:00,
2013-03-03 03:40:00,23.6,21.0,30.26,WSW,250,0.0,0.0,90,0.00,,,0.00,weatherlink.com 1.10,2013-03-03 09:40:00,
2013-03-03 03:55:00,23.6,21.0,30.26,WSW,250,0.0,0.0,90,0.00,,,0.00,weatherlink.com 1.10,2013-03-03 09:55:00,
2013-03-03 04:10:00,23.4,21.0,30.26,WSW,250,0.0,0.0,91,0.00,,,0.00,weatherlink.com 1.10,2013-03-03 10:10:00,
2013-03-03 04:25:00,23.4,21.0,30.26,WSW,250,0.0,0.0,91,0.00,,,0.00,weatherlink.com 1.10,2013-03-03 10:25:00,
2013-03-03 04:40:00,23.2,21.0,30.26,WSW,250,0.0,0.0,91,0.00,,,0.00,weatherlink.com 1.10,2013-03-03 10:40:00,
2013-03-03 04:55:00,23.2,21.0,30.26,WSW,250,0.0,0.0,91,0.00,,,0.00,weatherlink.com 1.10,2013-03-03 10:55:00,
2013-03-03 05:11:00,22.9,21.0,30.26,WSW,250,0.0,0.0,91,0.00,,,0.00,weatherlink.com 1.10,2013-03-03 11:11:00,
2013-03-03 05:26:00,23.1,21.0,30.25,WSW,250,0.0,0.0,92,0.00,,,0.00,weatherlink.com 1.10,2013-03-03 11:26:00,
2013-03-03 05:41:00,22.7,21.0,30.25,WSW,250,0.0,0.0,91,0.00,,,0.00,weatherlink.com 1.10,2013-03-03 11:41:00,
2013-03-03 05:56:00,22.1,20.0,30.26,WSW,250,0.0,0.0,92,0.00,,,0.00,weatherlink.com 1.10,2013-03-03 11:56:00,
2013-03-03 06:11:00,22.1,20.0,30.26,WSW,250,0.0,0.0,92,0.00,,,0.00,weatherlink.com 1.10,2013-03-03 12:11:00,
2013-03-03 06:26:00,22.3,20.0,30.26,WSW,250,0.0,0.0,92,0.00,,,0.00,weatherlink.com 1.10,2013-03-03 12:26:00,
2013-03-03 06:41:00,22.2,20.0,30.26,WSW,250,0.0,0.0,92,0.00,,,0.00,weatherlink.com 1.10,2013-03-03 12:41:00,
2013-03-03 06:56:00,22.2,20.0,30.26,WSW,250,0.0,0.0,92,0.00,,,0.00,weatherlink.com 1.10,2013-03-03 12:56:00,
2013-03-03 07:11:00,22.5,21.0,30.26,WSW,250,0.0,0.0,92,0.00,,,0.00,weatherlink.com 1.10,2013-03-03 13:11:00,
2013-03-03 07:26:00,23.7,22.0,30.26,WSW,250,0.0,1.0,94,0.00,,,0.00,weatherlink.com 1.10,2013-03-03 13:26:00,
2013-03-03 07:41:00,25.8,24.0,30.27,SW,236,0.0,1.0,93,0.00,,,0.00,weatherlink.com 1.10,2013-03-03 13:41:00,
2013-03-03 07:56:00,27.6,25.0,30.28,WSW,257,0.0,1.0,88,0.00,,,0.00,weatherlink.com 1.10,2013-03-03 13:56:00,
2013-03-03 08:11:00,30.0,25.0,30.29,WSW,252,0.0,2.0,82,0.00,,,0.00,weatherlink.com 1.10,2013-03-03 14:11:00,
2013-03-03 08:26:00,31.4,24.0,30.29,WSW,241,1.0,1.0,75,0.00,,,0.00,weatherlink.com 1.10,2013-03-03 14:26:00,
2013-03-03 08:41:00,32.4,23.0,30.29,WNW,287,2.0,3.0,68,0.00,,,0.00,weatherlink.com 1.10,2013-03-03 14:41:00,
2013-03-03 08:56:00,33.3,23.0,30.28,SSW,199,0.0,3.0,65,0.00,,,0.00,weatherlink.com 1.10,2013-03-03 14:56:00,
2013-03-03 09:11:00,35.3,23.0,30.28,SW,222,0.0,1.0,61,0.00,,,0.00,weatherlink.com 1.10,2013-03-03 15:11:00,
2013-03-03 09:26:00,35.7,22.0,30.27,WSW,257,0.0,3.0,57,0.00,,,0.00,weatherlink.com 1.10,2013-03-03 15:26:00,
2013-03-03 09:41:00,35.9,22.0,30.27,West,259,1.0,2.0,57,0.00,,,0.00,weatherlink.com 1.10,2013-03-03 15:41:00,
2013-03-03 09:56:00,37.2,22.0,30.28,NNE,29,0.0,4.0,55,0.00,,,0.00,weatherlink.com 1.10,2013-03-03 15:56:00,
2013-03-03 10:11:00,37.8,21.0,30.27,WSW,253,0.0,3.0,52,0.00,,,0.00,weatherlink.com 1.10,2013-03-03 16:11:00,
2013-03-03 10:26:00,38.4,22.0,30.28,SSW,203,1.0,5.0,51,0.00,,,0.00,weatherlink.com 1.10,2013-03-03 16:26:00,
2013-03-03 10:41:00,39.1,22.0,30.28,West,274,1.0,4.0,51,0.00,,,0.00,weatherlink.com 1.10,2013-03-03 16:41:00,
2013-03-03 10:56:00,39.6,22.0,30.27,WSW,249,2.0,6.0,50,0.00,,,0.00,weatherlink.com 1.10,2013-03-03 16:56:00,
2013-03-03 11:11:00,40.3,23.0,30.27,WNW,284,1.0,5.0,50,0.00,,,0.00,weatherlink.com 1.10,2013-03-03 17:11:00,
2013-03-03 11:26:00,40.9,22.0,30.26,SW,228,2.0,4.0,48,0.00,,,0.00,weatherlink.com 1.10,2013-03-03 17:26:00,
2013-03-03 11:41:00,41.7,23.0,30.26,WSW,243,2.0,4.0,47,0.00,,,0.00,weatherlink.com 1.10,2013-03-03 17:41:00,
2013-03-03 11:56:00,41.7,23.0,30.25,WSW,243,2.0,7.0,47,0.00,,,0.00,weatherlink.com 1.10,2013-03-03 17:56:00,
2013-03-03 12:11:00,42.6,23.0,30.25,NW,310,1.0,8.0,47,0.00,,,0.00,weatherlink.com 1.10,2013-03-03 18:11:00,
2013-03-03 12:26:00,43.1,24.0,30.24,WNW,285,2.0,7.0,47,0.00,,,0.00,weatherlink.com 1.10,2013-03-03 18:26:00,
2013-03-03 12:42:00,43.5,23.0,30.23,NW,316,3.0,5.0,45,0.00,,,0.00,weatherlink.com 1.10,2013-03-03 18:42:00,
2013-03-03 12:57:00,44.0,23.0,30.21,SSW,200,2.0,4.0,44,0.00,,,0.00,weatherlink.com 1.10,2013-03-03 18:57:00,
2013-03-03 13:12:00,45.1,22.0,30.21,SW,232,2.0,2.0,40,0.00,,,0.00,weatherlink.com 1.10,2013-03-03 19:12:00,
2013-03-03 13:27:00,45.6,22.0,30.20,SW,232,1.0,5.0,40,0.00,,,0.00,weatherlink.com 1.10,2013-03-03 19:27:00,
2013-03-03 13:42:00,46.1,22.0,30.20,NW,317,0.0,4.0,38,0.00,,,0.00,weatherlink.com 1.10,2013-03-03 19:42:00,
2013-03-03 13:57:00,46.0,23.0,30.19,SSE,167,2.0,6.0,40,0.00,,,0.00,weatherlink.com 1.10,2013-03-03 19:57:00,
2013-03-03 14:12:00,47.9,23.0,30.18,WSW,240,2.0,4.0,38,0.00,,,0.00,weatherlink.com 1.10,2013-03-03 20:12:00,
2013-03-03 14:27:00,47.9,22.0,30.17,West,281,0.0,2.0,36,0.00,,,0.00,weatherlink.com 1.10,2013-03-03 20:27:00,
2013-03-03 14:42:00,48.7,23.0,30.16,WNW,293,0.0,3.0,37,0.00,,,0.00,weatherlink.com 1.10,2013-03-03 20:42:00,
2013-03-03 14:57:00,48.4,22.0,30.15,NW,321,1.0,6.0,35,0.00,,,0.00,weatherlink.com 1.10,2013-03-03 20:57:00,
2013-03-03 15:12:00,49.0,23.0,30.15,SW,228,1.0,4.0,36,0.00,,,0.00,weatherlink.com 1.10,2013-03-03 21:12:00,
2013-03-03 15:27:00,49.6,23.0,30.15,NW,307,4.0,4.0,35,0.00,,,0.00,weatherlink.com 1.10,2013-03-03 21:27:00,
2013-03-03 15:42:00,49.5,21.0,30.14,South,184,2.0,4.0,33,0.00,,,0.00,weatherlink.com 1.10,2013-03-03 21:42:00,
2013-03-03 15:57:00,49.0,22.0,30.14,WSW,242,0.0,3.0,35,0.00,,,0.00,weatherlink.com 1.10,2013-03-03 21:57:00,
2013-03-03 16:12:00,49.1,22.0,30.14,South,184,1.0,3.0,34,0.00,,,0.00,weatherlink.com 1.10,2013-03-03 22:12:00,
2013-03-03 16:27:00,49.5,23.0,30.13,West,264,1.0,2.0,36,0.00,,,0.00,weatherlink.com 1.10,2013-03-03 22:27:00,
2013-03-03 16:42:00,48.9,23.0,30.13,SSW,199,0.0,2.0,36,0.00,,,0.00,weatherlink.com 1.10,2013-03-03 22:42:00,
2013-03-03 16:57:00,47.6,23.0,30.12,SW,222,0.0,2.0,38,0.00,,,0.00,weatherlink.com 1.10,2013-03-03 22:57:00,
2013-03-03 17:12:00,46.7,22.0,30.13,SSW,207,1.0,2.0,38,0.00,,,0.00,weatherlink.com 1.10,2013-03-03 23:12:00,
2013-03-03 17:27:00,46.1,24.0,30.14,SW,224,0.0,3.0,42,0.00,,,0.00,weatherlink.com 1.10,2013-03-03 23:27:00,
2013-03-03 17:42:00,45.8,23.0,30.12,SSW,203,0.0,2.0,41,0.00,,,0.00,weatherlink.com 1.10,2013-03-03 23:42:00,
2013-03-03 17:57:00,45.4,23.0,30.12,SSW,212,0.0,1.0,42,0.00,,,0.00,weatherlink.com 1.10,2013-03-03 23:57:00,
2013-03-03 18:12:00,44.8,23.0,30.12,SSW,207,0.0,1.0,42,0.00,,,0.00,weatherlink.com 1.10,2013-03-04 00:12:00,
2013-03-03 18:28:00,44.0,24.0,30.12,SSW,207,0.0,1.0,45,0.00,,,0.00,weatherlink.com 1.10,2013-03-04 00:28:00,
2013-03-03 18:43:00,43.1,23.0,30.12,SSW,207,0.0,0.0,46,0.00,,,0.00,weatherlink.com 1.10,2013-03-04 00:43:00,
2013-03-03 18:58:00,42.4,24.0,30.12,SSW,207,0.0,0.0,48,0.00,,,0.00,weatherlink.com 1.10,2013-03-04 00:58:00,
2013-03-03 19:13:00,41.5,24.0,30.12,SSW,207,0.0,0.0,50,0.00,,,0.00,weatherlink.com 1.10,2013-03-04 01:13:00,
2013-03-03 19:28:00,41.1,25.0,30.12,SSW,207,0.0,0.0,53,0.00,,,0.00,weatherlink.com 1.10,2013-03-04 01:28:00,
2013-03-03 19:43:00,40.6,24.0,30.12,SSW,207,0.0,0.0,53,0.00,,,0.00,weatherlink.com 1.10,2013-03-04 01:43:00,
2013-03-03 19:58:00,40.9,26.0,30.13,SSW,212,0.0,1.0,55,0.00,,,0.00,weatherlink.com 1.10,2013-03-04 01:58:00,
2013-03-03 20:13:00,41.2,26.0,30.14,SSW,212,0.0,1.0,54,0.00,,,0.00,weatherlink.com 1.10,2013-03-04 02:13:00,
2013-03-03 20:28:00,41.1,26.0,30.13,SSW,204,0.0,1.0,55,0.00,,,0.00,weatherlink.com 1.10,2013-03-04 02:28:00,
2013-03-03 20:43:00,40.6,26.0,30.13,SW,225,1.0,1.0,56,0.00,,,0.00,weatherlink.com 1.10,2013-03-04 02:43:00,
2013-03-03 20:58:00,40.0,26.0,30.13,SW,225,0.0,1.0,58,0.00,,,0.00,weatherlink.com 1.10,2013-03-04 02:58:00,
2013-03-03 21:13:00,39.5,26.0,30.12,SW,215,0.0,1.0,59,0.00,,,0.00,weatherlink.com 1.10,2013-03-04 03:13:00,
2013-03-03 21:28:00,39.3,26.0,30.13,SW,215,0.0,0.0,59,0.00,,,0.00,weatherlink.com 1.10,2013-03-04 03:28:00,
2013-03-03 21:43:00,39.1,26.0,30.13,SW,214,0.0,0.0,60,0.00,,,0.00,weatherlink.com 1.10,2013-03-04 03:43:00,
2013-03-03 21:58:00,39.2,26.0,30.13,SW,215,0.0,0.0,60,0.00,,,0.00,weatherlink.com 1.10,2013-03-04 03:58:00,
2013-03-03 22:13:00,39.2,27.0,30.12,SSW,210,0.0,0.0,61,0.00,,,0.00,weatherlink.com 1.10,2013-03-04 04:13:00,
2013-03-03 22:28:00,39.0,27.0,30.12,SSW,210,0.0,0.0,62,0.00,,,0.00,weatherlink.com 1.10,2013-03-04 04:28:00,
2013-03-03 22:43:00,38.9,27.0,30.11,East,98,0.0,0.0,63,0.00,,,0.00,weatherlink.com 1.10,2013-03-04 04:43:00,
2013-03-03 22:58:00,38.7,27.0,30.11,SSE,168,0.0,0.0,63,0.00,,,0.00,weatherlink.com 1.10,2013-03-04 04:58:00,
2013-03-03 23:13:00,38.2,27.0,30.11,SSE,165,0.0,1.0,64,0.00,,,0.00,weatherlink.com 1.10,2013-03-04 05:13:00,
2013-03-03 23:28:00,38.0,27.0,30.11,SSE,166,0.0,1.0,65,0.00,,,0.00,weatherlink.com 1.10,2013-03-04 05:28:00,
2013-03-03 23:43:00,37.9,27.0,30.11,SSE,166,0.0,0.0,66,0.00,,,0.00,weatherlink.com 1.10,2013-03-04 05:43:00,
2013-03-03 23:58:00,37.8,27.0,30.12,SSE,167,0.0,0.0,66,0.00,,,0.00,weatherlink.com 1.10,2013-03-04 05:58:00,